Location: Fernhill
(41.0167°S, 175.6333°E)
Time: 14:39:21
(UTC+00:00)

Meteor 2-6 Rocket - Pass Details

Date: 26 February 2026
Orbit: 804 x 913 km, 81.3° (Epoch: 7 March)

Event Time Altitude Azimuth Distance (km) Brightness Sun altitude
Exits shadow 09:41:19 27° 330° (NNW) 1,664 5.6 -27.0°
Maximum altitude 09:44:33 61° 258° (WSW) 1,025 4.7 -27.4°
Drops below altitude 10° 09:50:31 10° 177° (S) 2,629 7.2 -28.2°
Sets 09:53:04 0° 173° (S) 3,583 8.0 -28.6°
